CAPE
0 0 0 0 0 0 0 0 0 0 0 0 0 0 0 0 0 0 0 0 0 0
0 0 0 0 0 0 0 0 0 0 0 0 0 0 0 0 0 0 0 0 0 0
0 0 0 0 0 0 0 0 0 0 0 0 0 0 0 0 0 0 0 0 0 0
0 0 0 0 0 0 0 0 0 0 0 0 0 0 0 0 0 0 0 0 0 0
0 0 0 0 0 0 0 0 0 0 0 0 0 0 0 0 0 0 0 0 0 0
0 0 0 0 0 0 0 0 0 0 0 0 0 0 0 0 0 0 0 0 0 0
0 0 0 0 0 0 0 0 0 0 0 0 0 0 0 0 0 0 0 0 0 0
0 0 0 0 0 0 0 0 0 0 0 0 0 0 0 0 0 0 0 0 0 0
0 0 0 0 0 0 0 0 0 0 0 0 0 0 0 0 0 0 0 0 0 0
0 0 0 0 0 0 0 0 0 0 0 0 0 0 0 0 0 0 0 0 0 0
0 0 0 0 0 0 0 0 0 0 0 0 0 0 0 0 0 0 0 0 0 0
0 0 0 0 0 0 0 0 0 0 0 0 0 0 0 0 0 0 0 0 0 0
0 0 0 0 0 0 0 0 0 0 0 0 0 0 0 0 0 0 0 0 0 0
0 0 0 0 0 0 0 0 0 0 0 0 0 0 0 0 0 0 0 0 0 0
CIN
0 0 0 0 0 0 0 0 0 0 0 0 0 0 0 0 0 0 0 0 0 0
0 0 0 0 0 0 0 0 0 0 0 0 0 0 0 0 0 0 0 0 0 0
0 0 0 0 0 0 0 0 0 0 0 0 0 0 0 0 0 0 0 0 0 0
0 0 0 0 0 0 0 0 0 0 0 0 0 0 0 0 0 0 0 0 0 0
0 0 0 0 0 0 0 0 0 0 0 0 0 0 0 0 0 0 0 0 0 0
0 0 0 0 0 0 0 0 0 0 0 0 0 0 0 0 0 0 0 0 0 0
0 0 0 0 0 0 0 0 0 0 0 0 0 0 0 0 0 0 0 0 0 0
0 0 0 0 0 0 0 0 0 0 0 0 0 0 0 0 0 0 0 0 0 0
0 0 0 0 0 0 0 0 0 0 0 0 0 0 0 0 0 0 0 0 0 0
0 0 0 0 0 0 0 0 0 0 0 0 0 0 0 0 0 0 0 0 0 0
0 0 0 0 0 0 0 0 0 0 0 0 0 0 0 0 0 0 0 0 0 0
0 0 0 0 0 0 0 0 0 0 0 0 0 0 0 0 0 0 0 0 0 0
0 0 0 0 0 0 0 0 0 0 0 0 0 0 0 0 0 0 0 0 0 0
0 0 0 0 0 0 0 0 0 0 0 0 0 0 0 0 0 0 0 0 0 0
Wind_Speed
12 9 7 5 3 2 4 7 9 10 10 9 9 9 10 11 11 13 13 14 15 17
9 7 6 4 3 4 7 9 11 11 12 13 13 12 12 13 13 15 15 15 17 17
7 5 4 3 3 6 9 12 13 14 14 15 15 16 16 16 16 17 18 17 17 19
5 4 2 2 3 6 11 13 14 15 16 16 17 17 18 18 19 19 20 20 20 22
5 3 3 1 2 7 10 14 15 16 17 18 18 18 19 20 21 22 22 22 23 24
7 5 4 1 3 8 12 15 18 19 19 19 19 20 20 22 23 24 24 24 25 26
9 8 5 2 4 9 13 17 19 21 21 22 22 22 23 23 25 26 26 26 26 27
10 8 6 4 5 9 14 17 20 22 23 24 24 24 25 25 27 27 28 28 28 29
10 9 8 6 6 10 14 18 20 22 24 26 26 26 26 27 27 28 30 32 32 31
12 11 10 8 9 11 15 18 20 22 25 27 27 27 28 28 28 29 31 33 33 33
14 13 12 11 11 13 15 18 20 23 25 27 28 28 28 28 29 30 31 32 32 33
17 16 14 14 13 14 16 18 21 24 26 27 28 28 28 28 29 31 31 31 32 33
19 18 17 16 15 16 17 19 21 24 26 27 28 28 26 27 30 32 32 32 32 32
20 20 18 16 16 17 18 19 22 25 27 28 28 28 25 26 29 30 31 32 33 32
Wind_Direction
166 165 164 156 120 61 26 19 21 19 14 7 1 359 358 354 350 347 337 332 330 327
166 164 164 151 82 40 26 22 19 16 12 11 8 4 0 355 351 349 344 337 335 329
172 168 154 92 62 33 23 20 17 14 12 10 7 5 3 358 355 352 349 344 338 333
181 173 148 105 46 26 17 15 12 11 9 6 4 3 0 358 356 352 349 345 341 337
189 182 173 145 31 15 10 8 6 5 4 2 0 360 358 355 354 351 348 346 343 339
195 194 190 191 5 2 1 1 1 0 358 357 356 355 354 352 350 349 346 345 343 340
200 199 204 243 338 352 355 354 356 356 356 355 354 352 351 350 349 348 347 346 344 342
206 210 223 264 313 338 346 348 351 353 353 352 351 350 349 349 348 347 347 346 345 344
217 222 232 260 295 325 337 342 345 348 349 348 348 348 347 346 346 346 346 344 345 347
231 234 243 262 294 313 327 335 339 342 345 345 345 346 345 345 347 346 346 345 346 347
243 244 252 267 286 305 321 328 334 338 341 343 343 343 344 346 346 346 346 346 347 348
247 248 253 266 281 300 314 323 329 335 339 340 340 342 343 345 345 345 345 347 350 350
249 251 255 265 280 299 310 318 326 332 336 337 338 340 342 344 344 344 345 347 349 351
254 254 258 268 284 295 305 316 323 328 333 335 336 338 339 342 342 343 344 346 347 350